Weather History for KCID - October, 2013

Change the Weather History Date:

Monday, October 28, 2013

  Actual Average Record
Temperature  
Mean Temperature 45 °F 46 °F  
Max Temperature 55 °F 57 °F 81 °F (1922)
Min Temperature 34 °F 36 °F 2 °F (1925)
Degree Days  
Heating Degree Days 20 19  
Month to date heating degree days 406 396  
Since 1 July heating degree days 505 553  
Cooling Degree Days 0 0  
Month to date cooling degree days 19 8  
Year to date cooling degree days 884 748  
Moisture  
Dew Point 33 °F    
Average Humidity 67    
Maximum Humidity 82    
Minimum Humidity 51    
Precipitation  
Precipitation 0.00 in 0.08 in 0.62 in (1982)
Month to date precipitation 2.45 2.38  
Year to date precipitation 34.04 30.84  
Sea Level Pressure  
Sea Level Pressure 30.21 in    
Wind  
Wind Speed 12 mph (ENE)    
Max Wind Speed 21 mph    
Max Gust Speed 28 mph    
Visibility 10 miles    
Events      
T = Trace of Precipitation, MM = Missing Value Source: NWS Daily Summary

Daily Weather History Graph

Daily Weather History Graph

Search for Another Location

Airport or City:

Trip Planner

Search our weather history database for the weather conditions in past years. The results will help you decide how hot, cold, wet, or windy it might be!

Date:

Astronomy

Oct. 28, 2013 Rise Set
Actual Time 7:34 AM CDT 6:05 PM CDT
Civil Twilight 7:05 AM CDT 6:34 PM CDT
Nautical Twilight 6:33 AM CDT 7:07 PM CDT
Astronomical Twilight 6:00 AM CDT 7:39 PM CDT
Moon 1:22 AM CDT (10/28) 2:52 PM CDT (10/28)
Length of Visible Light 11h 28m
Length of Day
10h 31m
Waning Crescent, 34% of the Moon is Illuminated
Oct 28
Waning Crescent
Nov 3
New
Nov 9
First Quarter
Nov 17
Full
Nov 25
Last Quarter

Hourly Weather History & Observations

Time (CDT) Temp. Windchill Dew Point Humidity Pressure Visibility Wind Dir Wind Speed Gust Speed Precip Events Conditions
12:52 AM 39.9 °F 35.8 °F 27.0 °F 60% 30.02 in 10.0 mi South 5.8 mph - N/A   Clear
1:52 AM 37.0 °F 32.4 °F 27.0 °F 67% 30.03 in 10.0 mi South 5.8 mph - N/A   Clear
2:52 AM 37.0 °F 34.5 °F 27.0 °F 67% 30.04 in 10.0 mi SSE 3.5 mph - N/A   Clear
3:52 AM 35.1 °F - 27.0 °F 72% 30.05 in 10.0 mi Calm Calm - N/A   Clear
4:52 AM 35.1 °F 32.2 °F 28.0 °F 76% 30.09 in 10.0 mi NE 3.5 mph - N/A   Clear
5:52 AM 36.0 °F 29.6 °F 28.0 °F 73% 30.12 in 10.0 mi NE 8.1 mph - N/A   Clear
6:52 AM 37.0 °F 29.3 °F 28.9 °F 73% 30.15 in 10.0 mi NE 11.5 mph - N/A   Clear
7:52 AM 36.0 °F 28.5 °F 30.0 °F 79% 30.19 in 10.0 mi NE 10.4 mph - N/A   Clear
8:52 AM 39.0 °F 31.8 °F 32.0 °F 76% 30.23 in 10.0 mi ENE 11.5 mph - N/A   Clear
9:52 AM 43.0 °F 35.7 °F 34.0 °F 71% 30.25 in 10.0 mi ENE 15.0 mph - N/A   Clear
10:52 AM 46.0 °F 38.5 °F 36.0 °F 68% 30.27 in 10.0 mi ENE 19.6 mph 27.6 mph N/A   Partly Cloudy
11:52 AM 48.9 °F - 37.0 °F 64% 30.27 in 10.0 mi East 16.1 mph 24.2 mph N/A   Clear
12:52 PM 52.0 °F - 37.9 °F 59% 30.25 in 10.0 mi East 16.1 mph 23.0 mph N/A   Clear
1:52 PM 53.1 °F - 37.9 °F 57% 30.24 in 10.0 mi ENE 13.8 mph 20.7 mph N/A   Clear
2:52 PM 55.0 °F - 37.9 °F 53% 30.23 in 10.0 mi ENE 12.7 mph - N/A   Clear
3:52 PM 55.0 °F - 39.0 °F 55% 30.24 in 10.0 mi East 15.0 mph - N/A   Clear
4:52 PM 53.6 °F - 39.2 °F 58% 30.23 in 10.0 mi ENE 12.7 mph - N/A   Clear
5:52 PM 48.2 °F - 35.6 °F 62% 30.28 in 10.0 mi ENE 17.3 mph - N/A   Clear
6:52 PM 44.6 °F 37.4 °F 33.8 °F 66% 30.30 in 10.0 mi ENE 16.1 mph - N/A   Clear
7:52 PM 42.8 °F 35.8 °F 33.8 °F 70% 30.31 in 10.0 mi ENE 13.8 mph - N/A   Clear
8:52 PM 41.0 °F 33.5 °F 33.1 °F 73% 30.31 in 10.0 mi ENE 13.8 mph - N/A   Clear
9:52 PM 41.0 °F 33.5 °F 33.1 °F 73% 30.32 in 10.0 mi ENE 13.8 mph 21.9 mph N/A   Partly Cloudy
10:52 PM 41.0 °F 34.3 °F 33.8 °F 76% 30.32 in 10.0 mi East 11.5 mph - N/A   Clear
11:52 PM - - - N/A% 30.30 in 10.0 mi East 13.8 mph - N/A   Clear